QPF
0.01 0.01 0.01 0.04 0.05 0.05 0.05 0.04 0.03 0.05 0.09 0.11 0.10 0.09 0.07 0.06 0.05 0.04 0.06 0.06 0.04 0.04 0.04 0.05 0.05 0.05 0.05 0.04 0.03 0.02 0.02 0.02 0.02 0.02 0.02 0.02 0.01 0.01 0.01 0.01 0.01 0.01 0.02
0.01 0.01 0.01 0.02 0.04 0.05 0.07 0.06 0.04 0.04 0.06 0.09 0.08 0.09 0.08 0.06 0.04 0.04 0.05 0.08 0.07 0.05 0.05 0.05 0.05 0.05 0.05 0.05 0.04 0.03 0.02 0.02 0.02 0.02 0.02 0.02 0.02 0.02 0.01 0.01 0.01 0.01 0.01
0.01 0.01 0.01 0.02 0.03 0.03 0.06 0.07 0.05 0.04 0.05 0.07 0.08 0.08 0.09 0.08 0.06 0.04 0.04 0.06 0.09 0.08 0.05 0.05 0.05 0.05 0.06 0.06 0.05 0.04 0.03 0.03 0.02 0.01 0.02 0.02 0.02 0.01 0.01 0.01 0.01 0.01 0.01
0.01 0.01 0.01 0.02 0.02 0.02 0.04 0.06 0.04 0.05 0.05 0.05 0.08 0.09 0.07 0.07 0.07 0.06 0.04 0.04 0.06 0.09 0.07 0.05 0.05 0.04 0.04 0.05 0.06 0.05 0.04 0.03 0.03 0.02 0.01 0.01 0.01 0.01 0.01 0.01 0.01 0.00 0.01
0.01 0.01 0.01 0.02 0.02 0.03 0.03 0.06 0.04 0.04 0.05 0.05 0.07 0.09 0.09 0.07 0.07 0.06 0.06 0.04 0.04 0.06 0.09 0.06 0.05 0.04 0.04 0.03 0.04 0.05 0.05 0.04 0.04 0.03 0.02 0.01 0.01 0.01 0.01 0.00 0.00 0.00 0.01
0.01 0.01 0.01 0.01 0.02 0.02 0.03 0.04 0.04 0.04 0.05 0.06 0.07 0.09 0.09 0.08 0.07 0.07 0.06 0.06 0.04 0.04 0.07 0.09 0.06 0.05 0.04 0.04 0.03 0.03 0.04 0.04 0.04 0.04 0.04 0.02 0.02 0.02 0.01 0.01 0.01 0.01 0.01
0.01 0.01 0.01 0.01 0.01 0.02 0.02 0.03 0.04 0.04 0.05 0.06 0.07 0.08 0.08 0.08 0.08 0.06 0.06 0.07 0.07 0.05 0.04 0.07 0.07 0.05 0.05 0.04 0.04 0.03 0.03 0.03 0.03 0.03 0.04 0.04 0.03 0.02 0.02 0.01 0.01 0.01 0.00
0.01 0.01 0.01 0.02 0.02 0.02 0.02 0.03 0.03 0.04 0.05 0.07 0.08 0.07 0.07 0.07 0.07 0.06 0.05 0.06 0.06 0.05 0.03 0.03 0.05 0.06 0.05 0.04 0.04 0.03 0.03 0.03 0.03 0.03 0.03 0.03 0.03 0.03 0.02 0.01 0.01 0.01 0.00
0.01 0.01 0.01 0.01 0.02 0.02 0.02 0.02 0.03 0.03 0.03 0.04 0.08 0.09 0.08 0.06 0.05 0.05 0.05 0.04 0.05 0.06 0.05 0.03 0.03 0.04 0.05 0.05 0.05 0.04 0.03 0.03 0.02 0.02 0.02 0.02 0.03 0.03 0.02 0.02 0.01 0.01 0.01
0.01 0.01 0.01 0.01 0.01 0.02 0.02 0.02 0.02 0.02 0.02 0.02 0.03 0.05 0.07 0.08 0.07 0.06 0.05 0.05 0.05 0.05 0.06 0.05 0.04 0.04 0.04 0.05 0.06 0.06 0.04 0.03 0.03 0.02 0.01 0.02 0.02 0.02 0.02 0.02 0.01 0.01 0.01
0.01 0.01 0.01 0.01 0.01 0.01 0.01 0.01 0.01 0.01 0.01 0.01 0.02 0.02 0.03 0.05 0.06 0.07 0.07 0.07 0.06 0.06 0.05 0.05 0.04 0.04 0.03 0.04 0.04 0.06 0.05 0.04 0.04 0.03 0.02 0.01 0.01 0.01 0.01 0.01 0.01 0.01 0.01
0.01 0.01 0.01 0.01 0.01 0.01 0.01 0.01 0.01 0.01 0.01 0.01 0.01 0.01 0.02 0.02 0.04 0.05 0.05 0.06 0.07 0.07 0.07 0.06 0.05 0.04 0.03 0.03 0.03 0.03 0.04 0.04 0.03 0.03 0.02 0.02 0.01 0.01 0.01 0.01 0.01 0.01 0.01
0.01 0.01 0.01 0.01 0.01 0.01 0.01 0.01 0.01 0.01 0.01 0.01 0.01 0.01 0.01 0.01 0.02 0.04 0.04 0.05 0.06 0.06 0.07 0.08 0.07 0.06 0.05 0.04 0.04 0.03 0.03 0.03 0.02 0.02 0.02 0.01 0.02 0.02 0.01 0.01 0.01 0.01 0.01
0.01 0.01 0.01 0.01 0.01 0.01 0.01 0.01 0.01 0.01 0.01 0.01 0.01 0.01 0.01 0.01 0.02 0.03 0.04 0.04 0.05 0.05 0.05 0.07 0.08 0.08 0.06 0.06 0.06 0.05 0.05 0.04 0.04 0.02 0.02 0.01 0.01 0.02 0.02 0.02 0.02 0.02 0.02
0.01 0.01 0.01 0.01 0.01 0.01 0.00 0.01 0.01 0.01 0.01 0.01 0.02 0.02 0.01 0.01 0.01 0.02 0.03 0.04 0.05 0.05 0.04 0.04 0.05 0.07 0.07 0.07 0.07 0.05 0.05 0.05 0.06 0.06 0.05 0.04 0.04 0.03 0.03 0.03 0.03 0.03 0.02
0.01 0.01 0.01 0.00 0.01 0.01 0.01 0.01 0.01 0.01 0.02 0.01 0.02 0.02 0.02 0.01 0.01 0.02 0.02 0.03 0.05 0.05 0.04 0.04 0.04 0.04 0.04 0.05 0.06 0.06 0.04 0.04 0.04 0.04 0.04 0.04 0.04 0.04 0.03 0.03 0.03 0.03 0.03
0.01 0.01 0.01 0.01 0.01 0.01 0.01 0.01 0.01 0.01 0.02 0.02 0.02 0.03 0.03 0.02 0.02 0.02 0.02 0.02 0.03 0.04 0.04 0.04 0.04 0.04 0.04 0.04 0.04 0.05 0.04 0.04 0.03 0.03 0.03 0.03 0.03 0.03 0.02 0.02 0.02 0.02 0.02
0.01 0.01 0.01 0.01 0.01 0.01 0.01 0.01 0.01 0.01 0.01 0.02 0.02 0.02 0.03 0.03 0.02 0.02 0.02 0.03 0.03 0.03 0.04 0.04 0.04 0.04 0.04 0.03 0.03 0.03 0.03 0.03 0.02 0.02 0.02 0.02 0.02 0.02 0.02 0.02 0.02 0.01 0.01
0.01 0.01 0.01 0.01 0.01 0.01 0.01 0.01 0.01 0.01 0.01 0.02 0.01 0.01 0.02 0.02 0.02 0.03 0.03 0.03 0.03 0.03 0.04 0.04 0.03 0.03 0.03 0.03 0.02 0.02 0.02 0.02 0.01 0.01 0.01 0.01 0.02 0.02 0.02 0.02 0.02 0.01 0.01
0.01 0.01 0.01 0.01 0.01 0.01 0.01 0.01 0.01 0.01 0.01 0.01 0.01 0.01 0.01 0.02 0.02 0.02 0.02 0.03 0.03 0.03 0.03 0.03 0.02 0.02 0.02 0.02 0.02 0.02 0.01 0.01 0.01 0.01 0.01 0.00 0.01 0.01 0.02 0.02 0.02 0.02 0.01
0.01 0.01 0.01 0.01 0.01 0.01 0.01 0.01 0.01 0.01 0.01 0.01 0.01 0.01 0.01 0.01 0.02 0.02 0.02 0.02 0.02 0.02 0.02 0.02 0.01 0.01 0.01 0.01 0.01 0.01 0.01 0.01 0.01 0.01 0.00 0.00 0.00 0.01 0.01 0.01 0.02 0.02 0.02
0.01 0.01 0.01 0.01 0.01 0.01 0.01 0.01 0.01 0.01 0.01 0.01 0.01 0.01 0.02 0.01 0.01 0.02 0.02 0.02 0.02 0.02 0.01 0.01 0.01 0.01 0.00 0.00 0.00 0.01 0.01 0.01 0.01 0.01 0.01 0.01 0.01 0.01 0.01 0.01 0.01 0.01 0.02
0.01 0.01 0.01 0.01 0.01 0.01 0.01 0.01 0.01 0.01 0.01 0.01 0.01 0.01 0.02 0.02 0.02 0.02 0.02 0.01 0.01 0.01 0.01 0.01 0.01 0.00 0.00 0.00 0.00 0.00 0.00 0.00 0.01 0.01 0.01 0.01 0.01 0.01 0.01 0.01 0.01 0.01 0.01
0.01 0.01 0.01 0.01 0.01 0.01 0.01 0.01 0.01 0.01 0.01 0.01 0.01 0.01 0.02 0.02 0.02 0.02 0.02 0.01 0.01 0.01 0.01 0.01 0.00 0.00 0.00 0.00 0.00 0.00 0.00 0.00 0.00 0.01 0.01 0.01 0.01 0.01 0.01 0.01 0.01 0.01 0.01
0.01 0.01 0.01 0.01 0.01 0.01 0.01 0.01 0.01 0.01 0.01 0.01 0.01 0.01 0.01 0.02 0.02 0.02 0.03 0.03 0.02 0.02 0.01 0.01 0.01 0.01 0.01 0.00 0.01 0.01 0.01 0.01 0.01 0.02 0.02 0.02 0.02 0.01 0.01 0.01 0.01 0.01 0.01
0.01 0.01 0.01 0.01 0.01 0.01 0.01 0.01 0.01 0.01 0.01 0.01 0.01 0.01 0.01 0.01 0.02 0.02 0.02 0.02 0.02 0.01 0.01 0.01 0.01 0.01 0.01 0.01 0.01 0.02 0.02 0.02 0.02 0.03 0.03 0.02 0.01 0.01 0.01 0.01 0.01 0.01 0.01
MSLP
1003.08 1003.37 1003.70 1004.05 1004.40 1004.77 1005.14 1005.56 1006.01 1006.51 1007.05 1007.62 1008.20 1008.77 1009.30 1009.79 1010.24 1010.66 1011.06 1011.49 1011.95 1012.47 1013.08 1013.78 1014.57 1015.45 1016.39 1017.39 1018.42 1019.46 1020.50 1021.51 1022.49 1023.43 1024.31 1025.11 1025.84 1026.46 1026.98 1027.38 1027.67 1027.85 1027.94
1002.07 1002.29 1002.58 1002.92 1003.30 1003.72 1004.18 1004.68 1005.22 1005.80 1006.42 1007.04 1007.66 1008.25 1008.80 1009.31 1009.77 1010.20 1010.61 1011.04 1011.49 1012.00 1012.57 1013.23 1013.97 1014.79 1015.69 1016.65 1017.66 1018.71 1019.77 1020.84 1021.90 1022.92 1023.90 1024.82 1025.67 1026.43 1027.08 1027.61 1028.03 1028.32 1028.51
1001.29 1001.37 1001.54 1001.81 1002.17 1002.61 1003.13 1003.73 1004.37 1005.06 1005.76 1006.45 1007.10 1007.72 1008.28 1008.78 1009.25 1009.68 1010.10 1010.53 1010.99 1011.49 1012.05 1012.68 1013.37 1014.14 1014.99 1015.90 1016.87 1017.90 1018.97 1020.06 1021.16 1022.24 1023.31 1024.33 1025.29 1026.17 1026.95 1027.63 1028.19 1028.62 1028.93
1000.84 1000.72 1000.71 1000.84 1001.11 1001.53 1002.08 1002.74 1003.49 1004.27 1005.06 1005.81 1006.51 1007.13 1007.69 1008.18 1008.62 1009.05 1009.48 1009.92 1010.40 1010.92 1011.48 1012.10 1012.78 1013.52 1014.32 1015.19 1016.13 1017.12 1018.17 1019.26 1020.38 1021.50 1022.61 1023.70 1024.74 1025.73 1026.63 1027.44 1028.13 1028.71 1029.16
1000.79 1000.42 1000.17 1000.09 1000.21 1000.54 1001.07 1001.77 1002.58 1003.44 1004.30 1005.11 1005.83 1006.46 1006.99 1007.45 1007.87 1008.28 1008.71 1009.17 1009.67 1010.23 1010.83 1011.48 1012.18 1012.93 1013.72 1014.57 1015.48 1016.45 1017.48 1018.56 1019.66 1020.79 1021.91 1023.03 1024.11 1025.16 1026.14 1027.05 1027.87 1028.59 1029.17
1001.17 1000.52 999.98 999.63 999.54 999.72 1000.17 1000.85 1001.68 1002.59 1003.50 1004.33 1005.07 1005.68 1006.17 1006.59 1006.97 1007.35 1007.77 1008.25 1008.79 1009.41 1010.08 1010.80 1011.55 1012.35 1013.18 1014.05 1014.96 1015.92 1016.93 1017.98 1019.06 1020.16 1021.26 1022.36 1023.45 1024.51 1025.54 1026.52 1027.43 1028.26 1028.98
1001.96 1001.02 1000.16 999.51 999.15 999.12 999.43 1000.02 1000.83 1001.73 1002.65 1003.49 1004.21 1004.79 1005.24 1005.61 1005.93 1006.28 1006.69 1007.18 1007.78 1008.46 1009.21 1010.03 1010.88 1011.76 1012.66 1013.58 1014.53 1015.51 1016.51 1017.54 1018.58 1019.64 1020.69 1021.74 1022.79 1023.83 1024.86 1025.88 1026.86 1027.78 1028.62
1003.10 1001.87 1000.69 999.71 999.05 998.78 998.89 999.35 1000.06 1000.91 1001.79 1002.60 1003.29 1003.82 1004.22 1004.53 1004.81 1005.12 1005.51 1006.02 1006.65 1007.41 1008.26 1009.18 1010.14 1011.13 1012.13 1013.14 1014.15 1015.16 1016.17 1017.18 1018.19 1019.19 1020.18 1021.17 1022.15 1023.15 1024.16 1025.18 1026.19 1027.19 1028.14
1004.49 1003.00 1001.51 1000.22 999.26 998.71 998.58 998.85 999.43 1000.18 1000.98 1001.73 1002.36 1002.84 1003.18 1003.43 1003.66 1003.93 1004.31 1004.82 1005.49 1006.30 1007.24 1008.26 1009.34 1010.45 1011.56 1012.65 1013.74 1014.80 1015.83 1016.84 1017.82 1018.77 1019.70 1020.62 1021.54 1022.48 1023.45 1024.46 1025.50 1026.55 1027.58
1006.06 1004.34 1002.59 1001.01 999.75 998.92 998.54 998.59 998.99 999.59 1000.28 1000.94 1001.49 1001.91 1002.20 1002.41 1002.59 1002.83 1003.19 1003.70 1004.38 1005.23 1006.23 1007.33 1008.50 1009.70 1010.91 1012.09 1013.25 1014.37 1015.44 1016.46 1017.43 1018.35 1019.24 1020.10 1020.97 1021.85 1022.79 1023.78 1024.83 1025.91 1027.01
1007.72 1005.81 1003.85 1002.03 1000.52 999.43 998.80 998.61 998.79 999.22 999.76 1000.31 1000.78 1001.14 1001.38 1001.55 1001.71 1001.92 1002.25 1002.74 1003.42 1004.28 1005.30 1006.45 1007.67 1008.94 1010.22 1011.48 1012.70 1013.87 1014.98 1016.02 1017.00 1017.91 1018.78 1019.61 1020.45 1021.30 1022.21 1023.19 1024.24 1025.34 1026.49
1009.36 1007.34 1005.23 1003.24 1001.53 1000.21 999.35 998.92 998.89 999.11 999.49 999.92 1000.30 1000.60 1000.81 1000.95 1001.09 1001.28 1001.59 1002.06 1002.72 1003.56 1004.57 1005.71 1006.95 1008.24 1009.55 1010.85 1012.12 1013.34 1014.49 1015.56 1016.56 1017.49 1018.36 1019.20 1020.02 1020.87 1021.77 1022.73 1023.78 1024.89 1026.05
1010.94 1008.87 1006.70 1004.61 1002.76 1001.26 1000.19 999.54 999.28 999.31 999.52 999.81 1000.11 1000.35 1000.53 1000.66 1000.80 1000.99 1001.28 1001.73 1002.35 1003.15 1004.11 1005.22 1006.43 1007.71 1009.02 1010.33 1011.62 1012.86 1014.04 1015.16 1016.19 1017.15 1018.05 1018.91 1019.75 1020.61 1021.50 1022.46 1023.49 1024.59 1025.74
1012.40 1010.35 1008.19 1006.07 1004.14 1002.52 1001.28 1000.43 999.96 999.80 999.84 1000.01 1000.21 1000.41 1000.58 1000.73 1000.87 1001.07 1001.36 1001.79 1002.37 1003.11 1004.01 1005.06 1006.21 1007.44 1008.72 1010.01 1011.30 1012.55 1013.76 1014.90 1015.97 1016.98 1017.92 1018.81 1019.68 1020.56 1021.46 1022.41 1023.41 1024.48 1025.59
1013.71 1011.74 1009.65 1007.57 1005.62 1003.93 1002.55 1001.54 1000.89 1000.55 1000.44 1000.48 1000.62 1000.79 1000.96 1001.13 1001.31 1001.53 1001.83 1002.25 1002.79 1003.48 1004.31 1005.28 1006.36 1007.53 1008.75 1010.00 1011.26 1012.51 1013.72 1014.89 1015.99 1017.03 1018.01 1018.94 1019.85 1020.74 1021.65 1022.58 1023.55 1024.57 1025.61
1014.83 1013.00 1011.03 1009.03 1007.12 1005.39 1003.94 1002.80 1002.00 1001.50 1001.26 1001.21 1001.28 1001.44 1001.62 1001.83 1002.06 1002.33 1002.65 1003.07 1003.59 1004.24 1005.01 1005.90 1006.90 1007.99 1009.14 1010.34 1011.56 1012.78 1013.98 1015.15 1016.27 1017.33 1018.34 1019.31 1020.24 1021.15 1022.05 1022.97 1023.89 1024.84 1025.80
1015.77 1014.10 1012.28 1010.40 1008.55 1006.83 1005.34 1004.11 1003.21 1002.59 1002.25 1002.12 1002.16 1002.31 1002.53 1002.79 1003.08 1003.40 1003.77 1004.20 1004.71 1005.32 1006.04 1006.87 1007.79 1008.81 1009.89 1011.03 1012.19 1013.37 1014.54 1015.68 1016.79 1017.86 1018.89 1019.87 1020.81 1021.73 1022.63 1023.52 1024.40 1025.27 1026.14
1016.54 1015.02 1013.36 1011.60 1009.85 1008.17 1006.68 1005.41 1004.44 1003.75 1003.34 1003.17 1003.19 1003.36 1003.61 1003.93 1004.28 1004.67 1005.08 1005.54 1006.06 1006.66 1007.34 1008.11 1008.97 1009.92 1010.93 1011.99 1013.09 1014.21 1015.33 1016.43 1017.51 1018.56 1019.57 1020.55 1021.50 1022.42 1023.31 1024.17 1025.01 1025.82 1026.61
1017.15 1015.78 1014.26 1012.63 1010.98 1009.37 1007.91 1006.65 1005.65 1004.94 1004.50 1004.32 1004.34 1004.53 1004.82 1005.20 1005.61 1006.05 1006.51 1007.01 1007.54 1008.13 1008.78 1009.51 1010.32 1011.20 1012.14 1013.13 1014.16 1015.21 1016.25 1017.30 1018.33 1019.33 1020.32 1021.28 1022.22 1023.13 1024.01 1024.86 1025.67 1026.44 1027.16
1017.67 1016.41 1015.01 1013.50 1011.96 1010.44 1009.04 1007.83 1006.85 1006.15 1005.72 1005.54 1005.57 1005.79 1006.12 1006.54 1007.00 1007.49 1007.99 1008.50 1009.05 1009.63 1010.26 1010.96 1011.73 1012.55 1013.43 1014.35 1015.30 1016.26 1017.23 1018.20 1019.16 1020.11 1021.05 1021.99 1022.91 1023.81 1024.68 1025.53 1026.32 1027.07 1027.76
1018.14 1016.96 1015.66 1014.27 1012.83 1011.43 1010.12 1008.97 1008.06 1007.39 1006.99 1006.83 1006.89 1007.13 1007.48 1007.93 1008.41 1008.92 1009.44 1009.97 1010.52 1011.10 1011.72 1012.39 1013.11 1013.89 1014.70 1015.55 1016.43 1017.31 1018.19 1019.08 1019.97 1020.85 1021.74 1022.64 1023.53 1024.42 1025.30 1026.15 1026.95 1027.69 1028.36
1018.63 1017.52 1016.30 1015.01 1013.69 1012.40 1011.21 1010.16 1009.32 1008.71 1008.35 1008.22 1008.29 1008.53 1008.90 1009.34 1009.83 1010.34 1010.86 1011.38 1011.92 1012.49 1013.09 1013.73 1014.42 1015.16 1015.92 1016.71 1017.51 1018.31 1019.12 1019.93 1020.73 1021.55 1022.39 1023.24 1024.11 1024.99 1025.87 1026.72 1027.53 1028.28 1028.96
1019.21 1018.15 1017.01 1015.83 1014.63 1013.46 1012.38 1011.44 1010.69 1010.15 1009.82 1009.71 1009.79 1010.02 1010.36 1010.78 1011.24 1011.73 1012.23 1012.73 1013.26 1013.81 1014.39 1015.01 1015.67 1016.36 1017.08 1017.82 1018.56 1019.29 1020.03 1020.76 1021.50 1022.26 1023.04 1023.85 1024.69 1025.55 1026.42 1027.27 1028.09 1028.85 1029.54
1019.92 1018.92 1017.87 1016.79 1015.71 1014.67 1013.71 1012.87 1012.20 1011.72 1011.42 1011.31 1011.37 1011.57 1011.87 1012.24 1012.66 1013.10 1013.57 1014.05 1014.55 1015.08 1015.64 1016.24 1016.88 1017.54 1018.22 1018.91 1019.60 1020.29 1020.96 1021.63 1022.31 1023.01 1023.74 1024.50 1025.31 1026.14 1026.99 1027.84 1028.65 1029.42 1030.11
1020.81 1019.88 1018.92 1017.95 1016.99 1016.06 1015.21 1014.47 1013.86 1013.41 1013.13 1013.01 1013.03 1013.17 1013.42 1013.73 1014.09 1014.49 1014.92 1015.36 1015.84 1016.35 1016.89 1017.48 1018.09 1018.73 1019.39 1020.05 1020.70 1021.34 1021.97 1022.59 1023.22 1023.87 1024.54 1025.26 1026.02 1026.81 1027.63 1028.45 1029.25 1030.00 1030.68
1021.88 1021.03 1020.17 1019.31 1018.46 1017.64 1016.88 1016.20 1015.64 1015.21 1014.92 1014.76 1014.73 1014.82 1015.00 1015.25 1015.56 1015.91 1016.30 1016.72 1017.17 1017.66 1018.20 1018.77 1019.36 1019.99 1020.62 1021.25 1021.87 1022.48 1023.07 1023.65 1024.24 1024.84 1025.47 1026.13 1026.84 1027.58 1028.34 1029.12 1029.87 1030.59 1031.25
Thickness
5525 5527 5530 5531 5533 5534 5537 5539 5540 5541 5543 5543 5543 5543 5542 5542 5543 5545 5546 5549 5550 5552 5554 5555 5556 5557 5558 5558 5560 5561 5560 5559 5560 5561 5560 5560 5562 5563 5563 5564 5565 5566 5566
5511 5515 5518 5520 5522 5524 5525 5527 5529 5530 5533 5533 5534 5534 5533 5531 5532 5533 5535 5537 5539 5541 5543 5545 5545 5546 5547 5547 5549 5551 5549 5548 5549 5550 5551 5550 5551 5552 5553 5554 5555 5555 5556
5500 5503 5506 5508 5510 5512 5515 5518 5517 5519 5520 5521 5522 5521 5520 5519 5519 5521 5523 5525 5527 5530 5531 5533 5535 5536 5537 5537 5538 5541 5541 5539 5538 5539 5541 5541 5541 5538 5541 5543 5544 5545 5545
5490 5492 5495 5497 5499 5501 5503 5504 5506 5507 5508 5509 5510 5511 5511 5509 5509 5509 5511 5513 5515 5517 5519 5521 5523 5524 5525 5526 5527 5529 5530 5531 5529 5528 5528 5529 5529 5528 5529 5532 5533 5534 5535
5480 5482 5485 5486 5488 5489 5491 5492 5494 5494 5495 5497 5499 5500 5499 5498 5496 5497 5498 5500 5502 5504 5506 5508 5511 5512 5513 5515 5516 5517 5518 5519 5519 5518 5517 5517 5517 5518 5518 5519 5520 5522 5523
5469 5471 5473 5474 5475 5477 5479 5480 5481 5482 5483 5485 5486 5487 5486 5485 5484 5485 5486 5487 5488 5491 5494 5496 5498 5500 5501 5502 5504 5506 5506 5507 5507 5508 5508 5508 5507 5506 5506 5505 5506 5508 5512
5457 5459 5460 5462 5464 5465 5467 5468 5469 5470 5471 5472 5473 5473 5474 5474 5474 5475 5474 5475 5476 5478 5481 5483 5486 5488 5489 5490 5492 5494 5494 5495 5496 5496 5497 5497 5497 5497 5496 5495 5494 5496 5499
5444 5447 5449 5451 5453 5454 5455 5456 5458 5458 5459 5460 5460 5461 5462 5462 5462 5463 5464 5464 5465 5468 5470 5470 5473 5476 5477 5478 5480 5481 5482 5483 5483 5484 5485 5485 5485 5485 5486 5485 5483 5484 5487
5431 5433 5437 5439 5441 5442 5443 5445 5445 5446 5447 5448 5448 5448 5449 5450 5451 5451 5452 5452 5454 5456 5457 5459 5461 5463 5464 5465 5467 5467 5469 5470 5471 5472 5473 5473 5473 5474 5474 5474 5475 5474 5474
5416 5419 5422 5426 5428 5430 5431 5432 5433 5434 5436 5436 5436 5437 5438 5438 5439 5440 5440 5441 5442 5444 5446 5447 5449 5451 5452 5452 5454 5455 5456 5457 5458 5459 5460 5460 5461 5461 5461 5462 5463 5463 5463
5402 5405 5408 5411 5413 5415 5417 5418 5420 5421 5423 5424 5425 5425 5426 5427 5427 5428 5428 5429 5430 5432 5434 5435 5436 5438 5439 5441 5442 5443 5444 5444 5445 5446 5447 5448 5448 5448 5449 5449 5450 5450 5450
5388 5390 5392 5396 5399 5401 5403 5405 5407 5409 5410 5411 5412 5413 5414 5414 5415 5416 5417 5417 5419 5420 5421 5422 5424 5425 5427 5429 5430 5431 5431 5432 5432 5433 5434 5435 5435 5436 5437 5436 5437 5438 5438
5374 5375 5378 5380 5383 5386 5389 5391 5394 5396 5398 5398 5399 5401 5402 5403 5404 5405 5406 5406 5407 5408 5409 5410 5411 5413 5415 5416 5417 5418 5419 5419 5420 5421 5422 5422 5422 5423 5424 5424 5425 5425 5426
5360 5362 5364 5365 5368 5371 5374 5377 5380 5382 5384 5385 5387 5388 5390 5391 5392 5393 5394 5395 5396 5396 5397 5398 5399 5401 5402 5403 5404 5405 5406 5406 5407 5408 5409 5409 5410 5411 5411 5411 5411 5412 5412
5348 5350 5351 5352 5354 5357 5360 5363 5366 5368 5371 5372 5374 5376 5377 5378 5380 5381 5382 5383 5384 5384 5386 5387 5387 5388 5389 5391 5391 5392 5393 5393 5393 5394 5395 5396 5397 5398 5398 5398 5398 5398 5398
5337 5338 5339 5340 5341 5344 5347 5350 5353 5355 5357 5359 5361 5363 5364 5365 5367 5368 5369 5370 5371 5372 5373 5374 5375 5376 5377 5378 5379 5380 5380 5381 5381 5381 5382 5383 5384 5384 5384 5385 5386 5385 5385
5325 5326 5327 5329 5331 5333 5336 5338 5341 5343 5345 5347 5348 5350 5352 5353 5355 5356 5357 5357 5358 5359 5360 5361 5362 5363 5364 5365 5366 5367 5367 5368 5368 5368 5369 5370 5371 5370 5370 5371 5372 5372 5371
5313 5315 5316 5318 5320 5322 5325 5327 5330 5331 5333 5335 5336 5338 5339 5341 5342 5343 5344 5344 5345 5346 5347 5347 5349 5350 5350 5351 5353 5353 5353 5354 5354 5355 5356 5356 5357 5356 5356 5357 5357 5357 5358
5302 5304 5306 5308 5310 5312 5314 5316 5318 5319 5321 5323 5324 5326 5327 5328 5330 5330 5331 5331 5332 5333 5334 5335 5335 5336 5337 5338 5339 5340 5340 5340 5341 5341 5342 5342 5343 5343 5343 5344 5344 5344 5344
5293 5294 5296 5297 5299 5301 5302 5304 5306 5307 5309 5311 5312 5313 5315 5316 5317 5318 5318 5318 5319 5320 5321 5321 5322 5322 5324 5325 5326 5326 5327 5327 5328 5328 5328 5329 5329 5330 5329 5329 5329 5329 5330
5282 5283 5285 5287 5288 5289 5291 5293 5295 5296 5297 5298 5300 5301 5302 5304 5305 5305 5305 5305 5306 5306 5307 5308 5309 5309 5311 5312 5313 5312 5313 5313 5314 5315 5315 5315 5316 5316 5316 5315 5315 5316 5315
5272 5273 5274 5276 5278 5279 5280 5282 5283 5284 5284 5286 5287 5288 5290 5291 5292 5292 5292 5293 5293 5293 5293 5294 5295 5296 5298 5299 5299 5299 5299 5300 5301 5302 5301 5301 5302 5302 5302 5302 5302 5301 5300
5261 5262 5263 5265 5266 5266 5267 5269 5270 5271 5273 5274 5275 5276 5278 5279 5279 5280 5280 5280 5281 5281 5282 5282 5283 5284 5285 5285 5286 5286 5286 5286 5286 5287 5288 5288 5287 5287 5287 5287 5287 5286 5285
5250 5251 5252 5253 5254 5255 5256 5257 5258 5260 5261 5262 5263 5264 5265 5266 5267 5268 5269 5269 5270 5270 5271 5271 5271 5272 5272 5272 5272 5272 5272 5272 5272 5272 5273 5273 5273 5272 5273 5273 5272 5271 5271
5240 5240 5241 5242 5243 5244 5245 5246 5247 5249 5249 5250 5251 5252 5253 5254 5255 5256 5257 5258 5259 5260 5260 5261 5260 5260 5261 5261 5261 5260 5260 5259 5258 5258 5258 5258 5258 5258 5258 5257 5257 5256 5256
5230 5230 5231 5232 5233 5234 5235 5236 5237 5238 5238 5239 5240 5241 5241 5242 5243 5244 5244 5246 5247 5248 5249 5250 5250 5250 5250 5250 5250 5249 5249 5248 5247 5245 5245 5245 5244 5244 5244 5244 5244 5243 5243